Time,TemperatureF,DewpointF,PressureIn,WindDirection,WindDirectionDegrees,WindSpeedMPH,WindSpeedGustMPH,Humidity,HourlyPrecipIn,Conditions,Clouds,dailyrainin,SoftwareType,DateUTC
2013-01-14 00:04:00,-11.7,-16.9,30.66,West,279,2.0,3.0,77,0.00,,,0.00,Wunderground v.1.15,2013-01-14 07:04:00,
2013-01-14 00:10:00,-11.3,-16.5,30.66,West,278,2.0,3.0,77,0.00,,,0.00,Wunderground v.1.15,2013-01-14 07:10:00,
2013-01-14 00:16:00,-11.0,-16.2,30.66,West,276,2.0,3.0,77,0.00,,,0.00,Wunderground v.1.15,2013-01-14 07:16:00,
2013-01-14 00:21:00,-10.6,-15.8,30.66,West,280,2.0,2.0,77,0.00,,,0.00,Wunderground v.1.15,2013-01-14 07:21:00,
2013-01-14 00:27:00,-10.6,-15.8,30.66,WNW,285,3.0,3.0,77,0.00,,,0.00,Wunderground v.1.15,2013-01-14 07:27:00,
2013-01-14 00:33:00,-11.4,-16.6,30.66,WNW,302,2.0,2.0,77,0.00,,,0.00,Wunderground v.1.15,2013-01-14 07:33:00,
2013-01-14 00:38:00,-12.1,-17.3,30.65,WNW,287,2.0,2.0,77,0.00,,,0.00,Wunderground v.1.15,2013-01-14 07:38:00,
2013-01-14 00:44:00,-12.5,-17.9,30.66,West,273,2.0,3.0,76,0.00,,,0.00,Wunderground v.1.15,2013-01-14 07:44:00,
2013-01-14 00:49:00,-12.6,-18.0,30.65,West,271,2.0,2.0,76,0.00,,,0.00,Wunderground v.1.15,2013-01-14 07:49:00,
2013-01-14 00:55:00,-12.6,-18.0,30.65,West,269,2.0,3.0,76,0.00,,,0.00,Wunderground v.1.15,2013-01-14 07:55:00,
2013-01-14 01:02:00,-12.4,-17.6,30.65,West,269,3.0,3.0,77,0.00,,,0.00,Wunderground v.1.15,2013-01-14 08:02:00,
2013-01-14 01:07:00,-11.9,-17.1,30.65,West,269,4.0,4.0,77,0.00,,,0.00,Wunderground v.1.15,2013-01-14 08:07:00,
2013-01-14 01:13:00,-11.3,-16.5,30.65,West,269,3.0,4.0,77,0.00,,,0.00,Wunderground v.1.15,2013-01-14 08:13:00,
2013-01-14 01:19:00,-11.8,-17.0,30.65,West,269,3.0,4.0,77,0.00,,,0.00,Wunderground v.1.15,2013-01-14 08:19:00,
2013-01-14 01:24:00,-12.6,-17.8,30.66,WNW,288,3.0,4.0,77,0.00,,,0.00,Wunderground v.1.15,2013-01-14 08:24:00,
2013-01-14 01:30:00,-13.3,-18.7,30.66,WNW,288,2.0,3.0,76,0.00,,,0.00,Wunderground v.1.15,2013-01-14 08:30:00,
2013-01-14 01:35:00,-13.7,-19.1,30.66,WNW,291,2.0,3.0,76,0.00,,,0.00,Wunderground v.1.15,2013-01-14 08:35:00,
2013-01-14 01:41:00,-13.3,-18.7,30.66,West,272,3.0,3.0,76,0.00,,,0.00,Wunderground v.1.15,2013-01-14 08:41:00,
2013-01-14 01:47:00,-12.9,-18.1,30.66,West,275,3.0,3.0,77,0.00,,,0.00,Wunderground v.1.15,2013-01-14 08:47:00,
2013-01-14 01:52:00,-12.9,-18.1,30.66,West,281,2.0,3.0,77,0.00,,,0.00,Wunderground v.1.15,2013-01-14 08:52:00,
2013-01-14 01:58:00,-12.6,-17.8,30.66,West,269,3.0,3.0,77,0.00,,,0.00,Wunderground v.1.15,2013-01-14 08:58:00,
2013-01-14 02:03:00,-12.4,-17.6,30.66,West,265,2.0,3.0,77,0.00,,,0.00,Wunderground v.1.15,2013-01-14 09:03:00,
2013-01-14 02:08:00,-11.7,-16.9,30.66,West,273,3.0,3.0,77,0.00,,,0.00,Wunderground v.1.15,2013-01-14 09:08:00,
2013-01-14 02:13:00,-11.7,-16.9,30.66,WNW,284,3.0,3.0,77,0.00,,,0.00,Wunderground v.1.15,2013-01-14 09:13:00,
2013-01-14 02:18:00,-11.8,-17.0,30.66,West,275,3.0,4.0,77,0.00,,,0.00,Wunderground v.1.15,2013-01-14 09:18:00,
2013-01-14 02:23:00,-12.2,-17.4,30.65,West,281,2.0,3.0,77,0.00,,,0.00,Wunderground v.1.15,2013-01-14 09:23:00,
2013-01-14 02:28:00,-12.8,-18.0,30.66,West,279,3.0,3.0,77,0.00,,,0.00,Wunderground v.1.15,2013-01-14 09:28:00,
2013-01-14 02:34:00,-13.2,-18.6,30.65,West,280,3.0,4.0,76,0.00,,,0.00,Wunderground v.1.15,2013-01-14 09:34:00,
2013-01-14 02:39:00,-13.1,-18.5,30.65,WNW,288,3.0,4.0,76,0.00,,,0.00,Wunderground v.1.15,2013-01-14 09:39:00,
2013-01-14 02:44:00,-12.6,-17.8,30.65,WNW,288,3.0,4.0,77,0.00,,,0.00,Wunderground v.1.15,2013-01-14 09:44:00,
2013-01-14 02:49:00,-12.4,-17.6,30.65,WNW,296,4.0,5.0,77,0.00,,,0.00,Wunderground v.1.15,2013-01-14 09:49:00,
2013-01-14 02:54:00,-11.9,-17.1,30.65,WNW,296,5.0,5.0,77,0.00,,,0.00,Wunderground v.1.15,2013-01-14 09:54:00,
2013-01-14 02:59:00,-11.5,-16.7,30.64,WNW,302,5.0,5.0,77,0.00,,,0.00,Wunderground v.1.15,2013-01-14 09:59:00,
2013-01-14 03:04:00,-11.2,-16.4,30.64,WNW,302,4.0,6.0,77,0.00,,,0.00,Wunderground v.1.15,2013-01-14 10:04:00,
2013-01-14 03:09:00,-11.0,-16.2,30.64,WNW,294,4.0,6.0,77,0.00,,,0.00,Wunderground v.1.15,2013-01-14 10:09:00,
2013-01-14 03:14:00,-11.0,-16.2,30.64,WNW,290,4.0,5.0,77,0.00,,,0.00,Wunderground v.1.15,2013-01-14 10:14:00,
2013-01-14 03:19:00,-11.1,-16.3,30.64,WNW,303,3.0,5.0,77,0.00,,,0.00,Wunderground v.1.15,2013-01-14 10:19:00,
2013-01-14 03:24:00,-11.1,-16.3,30.65,WNW,288,3.0,4.0,77,0.00,,,0.00,Wunderground v.1.15,2013-01-14 10:24:00,
2013-01-14 03:29:00,-11.1,-16.3,30.64,WNW,288,4.0,4.0,77,0.00,,,0.00,Wunderground v.1.15,2013-01-14 10:29:00,
2013-01-14 03:34:00,-11.1,-16.3,30.64,WNW,288,4.0,5.0,77,0.00,,,0.00,Wunderground v.1.15,2013-01-14 10:34:00,
2013-01-14 03:39:00,-11.2,-16.4,30.64,WNW,282,2.0,5.0,77,0.00,,,0.00,Wunderground v.1.15,2013-01-14 10:39:00,
2013-01-14 03:44:00,-11.5,-16.7,30.64,WNW,285,2.0,4.0,77,0.00,,,0.00,Wunderground v.1.15,2013-01-14 10:44:00,
2013-01-14 03:49:00,-11.8,-17.0,30.64,West,281,2.0,2.0,77,0.00,,,0.00,Wunderground v.1.15,2013-01-14 10:49:00,
2013-01-14 03:54:00,-12.3,-17.5,30.63,WNW,288,2.0,3.0,77,0.00,,,0.00,Wunderground v.1.15,2013-01-14 10:54:00,
2013-01-14 03:59:00,-12.5,-17.9,30.63,WNW,290,3.0,3.0,76,0.00,,,0.00,Wunderground v.1.15,2013-01-14 10:59:00,
2013-01-14 04:04:00,-12.0,-17.2,30.63,NW,305,3.0,4.0,77,0.00,,,0.00,Wunderground v.1.15,2013-01-14 11:04:00,
2013-01-14 04:09:00,-11.5,-16.7,30.63,WNW,299,3.0,3.0,77,0.00,,,0.00,Wunderground v.1.15,2013-01-14 11:09:00,
2013-01-14 04:14:00,-11.7,-16.9,30.63,WNW,299,4.0,5.0,77,0.00,,,0.00,Wunderground v.1.15,2013-01-14 11:14:00,
2013-01-14 04:19:00,-11.6,-16.8,30.63,WNW,298,3.0,4.0,77,0.00,,,0.00,Wunderground v.1.15,2013-01-14 11:19:00,
2013-01-14 04:24:00,-11.3,-16.5,30.63,WNW,293,3.0,4.0,77,0.00,,,0.00,Wunderground v.1.15,2013-01-14 11:24:00,
2013-01-14 04:29:00,-11.2,-16.4,30.63,WNW,298,3.0,3.0,77,0.00,,,0.00,Wunderground v.1.15,2013-01-14 11:29:00,
2013-01-14 04:34:00,-11.1,-16.3,30.63,WNW,302,4.0,5.0,77,0.00,,,0.00,Wunderground v.1.15,2013-01-14 11:34:00,
2013-01-14 04:39:00,-10.9,-16.1,30.63,WNW,294,3.0,4.0,77,0.00,,,0.00,Wunderground v.1.15,2013-01-14 11:39:00,
2013-01-14 04:44:00,-11.0,-16.2,30.63,WNW,286,3.0,4.0,77,0.00,,,0.00,Wunderground v.1.15,2013-01-14 11:44:00,
2013-01-14 04:49:00,-11.3,-16.5,30.63,West,281,3.0,3.0,77,0.00,,,0.00,Wunderground v.1.15,2013-01-14 11:49:00,
2013-01-14 04:54:00,-11.7,-16.9,30.63,West,278,3.0,3.0,77,0.00,,,0.00,Wunderground v.1.15,2013-01-14 11:54:00,
2013-01-14 04:59:00,-11.7,-16.9,30.62,West,275,2.0,2.0,77,0.00,,,0.00,Wunderground v.1.15,2013-01-14 11:59:00,
2013-01-14 05:04:00,-11.4,-16.6,30.62,West,277,1.0,3.0,77,0.00,,,0.00,Wunderground v.1.15,2013-01-14 12:04:00,
2013-01-14 05:09:00,-11.5,-16.7,30.62,West,277,1.0,2.0,77,0.00,,,0.00,Wunderground v.1.15,2013-01-14 12:09:00,
2013-01-14 05:14:00,-11.8,-17.0,30.62,West,277,2.0,3.0,77,0.00,,,0.00,Wunderground v.1.15,2013-01-14 12:14:00,
2013-01-14 05:19:00,-12.7,-17.9,30.62,West,277,3.0,3.0,77,0.00,,,0.00,Wunderground v.1.15,2013-01-14 12:19:00,
2013-01-14 05:24:00,-13.5,-18.9,30.63,West,277,3.0,4.0,76,0.00,,,0.00,Wunderground v.1.15,2013-01-14 12:24:00,
2013-01-14 05:29:00,-13.2,-18.6,30.63,West,277,1.0,2.0,76,0.00,,,0.00,Wunderground v.1.15,2013-01-14 12:29:00,
2013-01-14 05:34:00,-12.7,-17.9,30.64,West,277,1.0,3.0,77,0.00,,,0.00,Wunderground v.1.15,2013-01-14 12:34:00,
2013-01-14 05:40:00,-12.6,-17.8,30.64,West,277,0.0,1.0,77,0.00,,,0.00,Wunderground v.1.15,2013-01-14 12:40:00,
2013-01-14 05:45:00,-12.5,-17.7,30.64,West,277,2.0,3.0,77,0.00,,,0.00,Wunderground v.1.15,2013-01-14 12:45:00,
2013-01-14 05:50:00,-12.4,-17.6,30.64,West,277,0.0,1.0,77,0.00,,,0.00,Wunderground v.1.15,2013-01-14 12:50:00,
2013-01-14 05:55:00,-12.0,-17.2,30.64,West,277,0.0,1.0,77,0.00,,,0.00,Wunderground v.1.15,2013-01-14 12:55:00,
2013-01-14 06:00:00,-11.9,-17.1,30.64,West,277,2.0,2.0,77,0.00,,,0.00,Wunderground v.1.15,2013-01-14 13:00:00,
2013-01-14 06:05:00,-12.2,-17.4,30.65,West,277,1.0,2.0,77,0.00,,,0.00,Wunderground v.1.15,2013-01-14 13:05:00,
2013-01-14 06:10:00,-12.1,-17.3,30.65,West,277,1.0,1.0,77,0.00,,,0.00,Wunderground v.1.15,2013-01-14 13:10:00,
2013-01-14 06:15:00,-12.1,-17.3,30.65,West,277,0.0,2.0,77,0.00,,,0.00,Wunderground v.1.15,2013-01-14 13:15:00,
2013-01-14 06:20:00,-12.4,-17.6,30.65,West,277,1.0,1.0,77,0.00,,,0.00,Wunderground v.1.15,2013-01-14 13:20:00,
2013-01-14 06:25:00,-12.5,-17.7,30.65,West,277,1.0,1.0,77,0.00,,,0.00,Wunderground v.1.15,2013-01-14 13:25:00,
2013-01-14 06:30:00,-12.5,-17.7,30.65,West,277,1.0,2.0,77,0.00,,,0.00,Wunderground v.1.15,2013-01-14 13:30:00,
2013-01-14 06:35:00,-12.5,-17.7,30.65,West,277,3.0,3.0,77,0.00,,,0.00,Wunderground v.1.15,2013-01-14 13:35:00,
2013-01-14 06:40:00,-12.6,-17.8,30.66,West,277,2.0,2.0,77,0.00,,,0.00,Wunderground v.1.15,2013-01-14 13:40:00,
2013-01-14 06:45:00,-12.7,-17.9,30.66,West,277,2.0,3.0,77,0.00,,,0.00,Wunderground v.1.15,2013-01-14 13:45:00,
2013-01-14 06:50:00,-12.7,-17.9,30.66,West,277,3.0,3.0,77,0.00,,,0.00,Wunderground v.1.15,2013-01-14 13:50:00,
2013-01-14 06:55:00,-13.0,-18.2,30.66,West,277,2.0,4.0,77,0.00,,,0.00,Wunderground v.1.15,2013-01-14 13:55:00,
2013-01-14 07:00:00,-12.9,-18.1,30.66,West,277,2.0,2.0,77,0.00,,,0.00,Wunderground v.1.15,2013-01-14 14:00:00,
2013-01-14 07:05:00,-12.6,-17.8,30.67,West,277,0.0,3.0,77,0.00,,,0.00,Wunderground v.1.15,2013-01-14 14:05:00,
2013-01-14 07:10:00,-12.5,-17.7,30.67,West,277,0.0,1.0,77,0.00,,,0.00,Wunderground v.1.15,2013-01-14 14:10:00,
2013-01-14 07:15:00,-12.3,-17.5,30.67,West,277,0.0,1.0,77,0.00,,,0.00,Wunderground v.1.15,2013-01-14 14:15:00,
2013-01-14 07:20:00,-12.2,-17.4,30.67,West,277,0.0,1.0,77,0.00,,,0.00,Wunderground v.1.15,2013-01-14 14:20:00,
2013-01-14 07:25:00,-12.2,-17.4,30.67,West,277,1.0,2.0,77,0.00,,,0.00,Wunderground v.1.15,2013-01-14 14:25:00,
2013-01-14 07:30:00,-12.5,-17.7,30.68,West,277,1.0,1.0,77,0.00,,,0.00,Wunderground v.1.15,2013-01-14 14:30:00,
2013-01-14 07:35:00,-12.4,-17.6,30.67,West,277,1.0,2.0,77,0.00,,,0.00,Wunderground v.1.15,2013-01-14 14:35:00,
2013-01-14 07:40:00,-12.3,-17.5,30.68,West,277,1.0,2.0,77,0.00,,,0.00,Wunderground v.1.15,2013-01-14 14:40:00,
2013-01-14 07:45:00,-12.6,-17.8,30.68,West,277,1.0,2.0,77,0.00,,,0.00,Wunderground v.1.15,2013-01-14 14:45:00,
2013-01-14 07:50:00,-12.7,-17.9,30.68,West,277,3.0,3.0,77,0.00,,,0.00,Wunderground v.1.15,2013-01-14 14:50:00,
2013-01-14 07:56:00,-12.5,-17.7,30.68,West,277,3.0,3.0,77,0.00,,,0.00,Wunderground v.1.15,2013-01-14 14:56:00,
2013-01-14 08:01:00,-12.4,-17.6,30.68,West,277,2.0,3.0,77,0.00,,,0.00,Wunderground v.1.15,2013-01-14 15:01:00,
2013-01-14 08:06:00,-12.4,-17.6,30.68,West,277,2.0,3.0,77,0.00,,,0.00,Wunderground v.1.15,2013-01-14 15:06:00,
2013-01-14 08:11:00,-12.4,-17.6,30.68,West,277,4.0,4.0,77,0.00,,,0.00,Wunderground v.1.15,2013-01-14 15:11:00,
2013-01-14 08:16:00,-12.1,-17.3,30.67,West,277,0.0,4.0,77,0.00,,,0.00,Wunderground v.1.15,2013-01-14 15:16:00,
2013-01-14 08:21:00,-11.9,-17.1,30.67,West,277,3.0,3.0,77,0.00,,,0.00,Wunderground v.1.15,2013-01-14 15:21:00,
2013-01-14 08:26:00,-11.8,-17.0,30.67,West,277,3.0,3.0,77,0.00,,,0.00,Wunderground v.1.15,2013-01-14 15:26:00,
2013-01-14 08:31:00,-11.8,-17.0,30.67,West,277,3.0,4.0,77,0.00,,,0.00,Wunderground v.1.15,2013-01-14 15:31:00,
2013-01-14 08:36:00,-11.9,-17.1,30.67,West,277,1.0,4.0,77,0.00,,,0.00,Wunderground v.1.15,2013-01-14 15:36:00,
2013-01-14 08:41:00,-11.3,-16.5,30.67,West,277,2.0,3.0,77,0.00,,,0.00,Wunderground v.1.15,2013-01-14 15:41:00,
2013-01-14 08:46:00,-11.0,-16.2,30.67,West,277,2.0,3.0,77,0.00,,,0.00,Wunderground v.1.15,2013-01-14 15:46:00,
2013-01-14 08:51:00,-10.8,-16.0,30.68,West,277,4.0,4.0,77,0.00,,,0.00,Wunderground v.1.15,2013-01-14 15:51:00,
2013-01-14 08:56:00,-10.6,-15.8,30.68,West,277,3.0,4.0,77,0.00,,,0.00,Wunderground v.1.15,2013-01-14 15:56:00,
2013-01-14 09:01:00,-10.2,-15.4,30.67,West,277,4.0,4.0,77,0.00,,,0.00,Wunderground v.1.15,2013-01-14 16:01:00,
2013-01-14 09:06:00,-9.7,-14.9,30.67,West,277,3.0,4.0,77,0.00,,,0.00,Wunderground v.1.15,2013-01-14 16:06:00,
2013-01-14 09:11:00,-9.2,-14.2,30.67,West,277,3.0,4.0,78,0.00,,,0.00,Wunderground v.1.15,2013-01-14 16:11:00,
2013-01-14 09:16:00,-8.6,-13.6,30.67,West,277,3.0,4.0,78,0.00,,,0.00,Wunderground v.1.15,2013-01-14 16:16:00,
2013-01-14 09:21:00,-7.6,-12.6,30.67,West,277,2.0,4.0,78,0.00,,,0.00,Wunderground v.1.15,2013-01-14 16:21:00,
2013-01-14 09:26:00,-7.0,-11.8,30.67,West,277,2.0,4.0,79,0.00,,,0.00,Wunderground v.1.15,2013-01-14 16:26:00,
2013-01-14 09:31:00,-6.4,-11.2,30.67,West,277,2.0,3.0,79,0.00,,,0.00,Wunderground v.1.15,2013-01-14 16:31:00,
2013-01-14 09:36:00,-5.6,-10.4,30.66,West,277,3.0,3.0,79,0.00,,,0.00,Wunderground v.1.15,2013-01-14 16:36:00,
2013-01-14 09:41:00,-5.2,-10.0,30.66,West,277,3.0,3.0,79,0.00,,,0.00,Wunderground v.1.15,2013-01-14 16:41:00,
2013-01-14 09:46:00,-5.2,-10.0,30.66,West,277,4.0,4.0,79,0.00,,,0.00,Wunderground v.1.15,2013-01-14 16:46:00,
2013-01-14 09:51:00,-4.8,-9.7,30.66,West,277,2.0,4.0,79,0.00,,,0.00,Wunderground v.1.15,2013-01-14 16:51:00,
2013-01-14 09:56:00,-4.1,-8.7,30.66,West,277,4.0,4.0,80,0.00,,,0.00,Wunderground v.1.15,2013-01-14 16:56:00,
2013-01-14 10:02:00,-3.5,-8.1,30.66,West,277,3.0,4.0,80,0.00,,,0.00,Wunderground v.1.15,2013-01-14 17:02:00,
2013-01-14 10:07:00,-3.0,-7.6,30.66,West,279,4.0,4.0,80,0.00,,,0.00,Wunderground v.1.15,2013-01-14 17:07:00,
2013-01-14 10:12:00,-2.4,-7.1,30.65,West,281,4.0,4.0,80,0.00,,,0.00,Wunderground v.1.15,2013-01-14 17:12:00,
2013-01-14 10:17:00,-1.8,-6.5,30.66,WNW,294,4.0,5.0,80,0.00,,,0.00,Wunderground v.1.15,2013-01-14 17:17:00,
2013-01-14 10:22:00,-1.2,-5.9,30.65,WNW,298,4.0,5.0,80,0.00,,,0.00,Wunderground v.1.15,2013-01-14 17:22:00,
2013-01-14 10:27:00,-0.6,-5.0,30.65,WNW,300,3.0,5.0,81,0.00,,,0.00,Wunderground v.1.15,2013-01-14 17:27:00,
2013-01-14 10:32:00,0.3,-4.2,30.65,WNW,299,4.0,5.0,81,0.00,,,0.00,Wunderground v.1.15,2013-01-14 17:32:00,
2013-01-14 10:37:00,0.8,-3.7,30.64,WNW,300,4.0,5.0,81,0.00,,,0.00,Wunderground v.1.15,2013-01-14 17:37:00,
2013-01-14 10:42:00,1.5,-3.0,30.64,WNW,299,3.0,4.0,81,0.00,,,0.00,Wunderground v.1.15,2013-01-14 17:42:00,
2013-01-14 10:47:00,2.6,-1.6,30.63,WNW,300,2.0,4.0,82,0.00,,,0.00,Wunderground v.1.15,2013-01-14 17:47:00,
2013-01-14 10:52:00,3.6,-0.7,30.63,WNW,299,2.0,3.0,82,0.00,,,0.00,Wunderground v.1.15,2013-01-14 17:52:00,
2013-01-14 10:57:00,4.4,0.1,30.63,WNW,299,1.0,3.0,82,0.00,,,0.00,Wunderground v.1.15,2013-01-14 17:57:00,
2013-01-14 11:02:00,5.4,1.1,30.63,WNW,300,2.0,3.0,82,0.00,,,0.00,Wunderground v.1.15,2013-01-14 18:02:00,
2013-01-14 11:08:00,6.4,2.3,30.63,WNW,299,1.0,3.0,83,0.00,,,0.00,Wunderground v.1.15,2013-01-14 18:08:00,
2013-01-14 11:13:00,5.9,1.8,30.62,WNW,300,0.0,1.0,83,0.00,,,0.00,Wunderground v.1.15,2013-01-14 18:13:00,
2013-01-14 11:18:00,4.3,0.0,30.62,NNW,334,1.0,3.0,82,0.00,,,0.00,Wunderground v.1.15,2013-01-14 18:18:00,
2013-01-14 11:23:00,3.6,1.8,30.62,NNW,334,0.0,1.0,92,0.00,,,0.00,Wunderground v.1.15,2013-01-14 18:23:00,
2013-01-14 11:28:00,3.6,-0.7,30.62,NNW,334,0.0,1.0,82,0.00,,,0.00,Wunderground v.1.15,2013-01-14 18:28:00,
2013-01-14 11:33:00,3.9,-0.4,30.61,NNW,334,0.0,0.0,82,0.00,,,0.00,Wunderground v.1.15,2013-01-14 18:33:00,
2013-01-14 11:38:00,4.4,0.1,30.61,NNW,334,0.0,0.0,82,0.00,,,0.00,Wunderground v.1.15,2013-01-14 18:38:00,
2013-01-14 11:43:00,4.9,0.6,30.60,NNW,334,0.0,0.0,82,0.00,,,0.00,Wunderground v.1.15,2013-01-14 18:43:00,
2013-01-14 11:48:00,6.6,2.0,30.59,NNW,334,0.0,0.0,81,0.00,,,0.00,Wunderground v.1.15,2013-01-14 18:48:00,
2013-01-14 11:53:00,7.3,2.2,30.58,NNW,334,0.0,0.0,79,0.00,,,0.00,Wunderground v.1.15,2013-01-14 18:53:00,
2013-01-14 11:58:00,7.7,2.3,30.58,NNW,334,0.0,0.0,78,0.00,,,0.00,Wunderground v.1.15,2013-01-14 18:58:00,
2013-01-14 12:03:00,8.6,2.6,30.58,NNW,334,0.0,0.0,76,0.00,,,0.00,Wunderground v.1.15,2013-01-14 19:03:00,
2013-01-14 12:08:00,9.1,2.2,30.58,NNW,334,0.0,0.0,73,0.00,,,0.00,Wunderground v.1.15,2013-01-14 19:08:00,
2013-01-14 12:13:00,9.9,2.4,30.57,NNW,334,0.0,0.0,71,0.00,,,0.00,Wunderground v.1.15,2013-01-14 19:13:00,
2013-01-14 12:18:00,10.5,2.3,30.57,NNW,334,0.0,0.0,69,0.00,,,0.00,Wunderground v.1.15,2013-01-14 19:18:00,
2013-01-14 12:23:00,12.1,3.6,30.57,NNW,334,0.0,0.0,68,0.00,,,0.00,Wunderground v.1.15,2013-01-14 19:23:00,
2013-01-14 12:28:00,13.0,3.8,30.56,NNW,334,0.0,0.0,66,0.00,,,0.00,Wunderground v.1.15,2013-01-14 19:28:00,
2013-01-14 12:33:00,13.9,4.0,30.56,NNW,334,0.0,0.0,64,0.00,,,0.00,Wunderground v.1.15,2013-01-14 19:33:00,
2013-01-14 12:38:00,13.6,2.3,30.56,NNW,334,0.0,0.0,60,0.00,,,0.00,Wunderground v.1.15,2013-01-14 19:38:00,
2013-01-14 12:43:00,13.0,1.7,30.56,NNW,334,0.0,0.0,60,0.00,,,0.00,Wunderground v.1.15,2013-01-14 19:43:00,
2013-01-14 12:48:00,12.8,1.5,30.55,NNW,334,0.0,0.0,60,0.00,,,0.00,Wunderground v.1.15,2013-01-14 19:48:00,
2013-01-14 12:53:00,12.9,1.6,30.55,NNW,334,0.0,0.0,60,0.00,,,0.00,Wunderground v.1.15,2013-01-14 19:53:00,
2013-01-14 12:58:00,12.4,1.1,30.54,NNW,334,0.0,0.0,60,0.00,,,0.00,Wunderground v.1.15,2013-01-14 19:58:00,
2013-01-14 13:03:00,12.7,2.1,30.54,NNW,334,0.0,0.0,62,0.00,,,0.00,Wunderground v.1.15,2013-01-14 20:03:00,
2013-01-14 13:08:00,13.0,1.7,30.53,NNW,334,0.0,0.0,60,0.00,,,0.00,Wunderground v.1.15,2013-01-14 20:08:00,
2013-01-14 13:13:00,13.3,2.3,30.53,NNW,334,0.0,0.0,61,0.00,,,0.00,Wunderground v.1.15,2013-01-14 20:13:00,
2013-01-14 13:18:00,13.5,1.8,30.53,NNW,334,0.0,0.0,59,0.00,,,0.00,Wunderground v.1.15,2013-01-14 20:18:00,
2013-01-14 13:23:00,13.3,1.3,30.53,NNW,334,0.0,0.0,58,0.00,,,0.00,Wunderground v.1.15,2013-01-14 20:23:00,
2013-01-14 13:28:00,13.6,2.6,30.53,NNW,334,0.0,0.0,61,0.00,,,0.00,Wunderground v.1.15,2013-01-14 20:28:00,
2013-01-14 13:33:00,13.6,2.3,30.53,NNW,334,0.0,0.0,60,0.00,,,0.00,Wunderground v.1.15,2013-01-14 20:33:00,
2013-01-14 13:38:00,14.0,2.7,30.53,NNW,334,0.0,0.0,60,0.00,,,0.00,Wunderground v.1.15,2013-01-14 20:38:00,
2013-01-14 13:43:00,14.6,3.2,30.53,NNW,334,0.0,0.0,60,0.00,,,0.00,Wunderground v.1.15,2013-01-14 20:43:00,
2013-01-14 13:48:00,15.5,3.7,30.53,NNW,334,0.0,0.0,59,0.00,,,0.00,Wunderground v.1.15,2013-01-14 20:48:00,
2013-01-14 13:53:00,16.1,4.3,30.53,NNW,334,0.0,0.0,59,0.00,,,0.00,Wunderground v.1.15,2013-01-14 20:53:00,
2013-01-14 13:58:00,15.6,2.7,30.52,NNW,334,0.0,0.0,56,0.00,,,0.00,Wunderground v.1.15,2013-01-14 20:58:00,
2013-01-14 14:03:00,14.4,1.5,30.52,NNW,334,0.0,0.0,56,0.00,,,0.00,Wunderground v.1.15,2013-01-14 21:03:00,
2013-01-14 14:08:00,14.4,3.4,30.52,NNW,334,0.0,0.0,61,0.00,,,0.00,Wunderground v.1.15,2013-01-14 21:08:00,
2013-01-14 14:13:00,14.8,3.0,30.52,NNW,334,0.0,0.0,59,0.00,,,0.00,Wunderground v.1.15,2013-01-14 21:13:00,
2013-01-14 14:18:00,14.4,2.3,30.52,NNW,334,0.0,0.0,58,0.00,,,0.00,Wunderground v.1.15,2013-01-14 21:18:00,
2013-01-14 14:23:00,14.1,2.4,30.53,NNW,334,0.0,0.0,59,0.00,,,0.00,Wunderground v.1.15,2013-01-14 21:23:00,
2013-01-14 14:28:00,13.8,1.7,30.53,NNW,334,0.0,0.0,58,0.00,,,0.00,Wunderground v.1.15,2013-01-14 21:28:00,
2013-01-14 14:33:00,13.1,1.4,30.53,NNW,334,0.0,0.0,59,0.00,,,0.00,Wunderground v.1.15,2013-01-14 21:33:00,
2013-01-14 14:38:00,11.9,0.7,30.53,NNW,334,0.0,0.0,60,0.00,,,0.00,Wunderground v.1.15,2013-01-14 21:38:00,
2013-01-14 14:43:00,10.8,0.0,30.53,NNW,334,0.0,0.0,61,0.00,,,0.00,Wunderground v.1.15,2013-01-14 21:43:00,
2013-01-14 14:48:00,9.9,-0.2,30.53,NNW,334,2.0,3.0,63,0.00,,,0.00,Wunderground v.1.15,2013-01-14 21:48:00,
2013-01-14 14:53:00,9.9,0.1,30.54,NNW,334,0.0,3.0,64,0.00,,,0.00,Wunderground v.1.15,2013-01-14 21:53:00,
2013-01-14 14:58:00,10.2,0.8,30.53,NNW,334,3.0,3.0,65,0.00,,,0.00,Wunderground v.1.15,2013-01-14 21:58:00,
2013-01-14 15:03:00,10.5,1.0,30.54,NNW,334,2.0,4.0,65,0.00,,,0.00,Wunderground v.1.15,2013-01-14 22:03:00,
2013-01-14 15:08:00,10.5,1.0,30.54,NNW,334,0.0,4.0,65,0.00,,,0.00,Wunderground v.1.15,2013-01-14 22:08:00,
2013-01-14 15:13:00,10.2,0.8,30.54,NNW,334,0.0,1.0,65,0.00,,,0.00,Wunderground v.1.15,2013-01-14 22:13:00,
2013-01-14 15:18:00,10.3,0.9,30.55,NNW,334,0.0,1.0,65,0.00,,,0.00,Wunderground v.1.15,2013-01-14 22:18:00,
2013-01-14 15:23:00,10.2,0.8,30.54,NNW,334,0.0,0.0,65,0.00,,,0.00,Wunderground v.1.15,2013-01-14 22:23:00,
2013-01-14 15:28:00,9.9,0.5,30.55,NNW,334,0.0,0.0,65,0.00,,,0.00,Wunderground v.1.15,2013-01-14 22:28:00,
2013-01-14 15:33:00,9.2,-0.2,30.55,NNW,334,0.0,0.0,65,0.00,,,0.00,Wunderground v.1.15,2013-01-14 22:33:00,
2013-01-14 15:38:00,8.7,-0.3,30.55,NNW,334,0.0,0.0,66,0.00,,,0.00,Wunderground v.1.15,2013-01-14 22:38:00,
2013-01-14 15:43:00,8.3,-0.7,30.55,NNW,334,0.0,0.0,66,0.00,,,0.00,Wunderground v.1.15,2013-01-14 22:43:00,
2013-01-14 15:48:00,8.2,-0.5,30.55,NNW,334,0.0,0.0,67,0.00,,,0.00,Wunderground v.1.15,2013-01-14 22:48:00,
2013-01-14 15:53:00,7.8,-0.9,30.55,NNW,334,2.0,2.0,67,0.00,,,0.00,Wunderground v.1.15,2013-01-14 22:53:00,
2013-01-14 15:58:00,7.2,-1.5,30.55,NNW,334,2.0,2.0,67,0.00,,,0.00,Wunderground v.1.15,2013-01-14 22:58:00,
2013-01-14 16:03:00,6.3,-2.0,30.55,NNW,334,3.0,4.0,68,0.00,,,0.00,Wunderground v.1.15,2013-01-14 23:03:00,
2013-01-14 16:09:00,5.6,-2.7,30.56,NNW,334,3.0,4.0,68,0.00,,,0.00,Wunderground v.1.15,2013-01-14 23:09:00,
2013-01-14 16:14:00,5.1,-2.6,30.56,NNW,334,3.0,4.0,70,0.00,,,0.00,Wunderground v.1.15,2013-01-14 23:14:00,
2013-01-14 16:19:00,4.9,-2.5,30.56,NNW,334,2.0,4.0,71,0.00,,,0.00,Wunderground v.1.15,2013-01-14 23:19:00,
2013-01-14 16:24:00,4.7,-2.6,30.56,NNW,334,1.0,3.0,71,0.00,,,0.00,Wunderground v.1.15,2013-01-14 23:24:00,
2013-01-14 16:29:00,4.6,-2.7,30.57,NNW,334,0.0,3.0,71,0.00,,,0.00,Wunderground v.1.15,2013-01-14 23:29:00,
2013-01-14 16:34:00,4.7,-2.3,30.57,NNW,334,2.0,2.0,72,0.00,,,0.00,Wunderground v.1.15,2013-01-14 23:34:00,
2013-01-14 16:39:00,4.9,-2.2,30.57,NNW,334,3.0,4.0,72,0.00,,,0.00,Wunderground v.1.15,2013-01-14 23:39:00,
2013-01-14 16:44:00,4.5,-2.5,30.57,NNW,334,2.0,4.0,72,0.00,,,0.00,Wunderground v.1.15,2013-01-14 23:44:00,
2013-01-14 16:49:00,4.5,-2.3,30.56,NNW,334,0.0,4.0,73,0.00,,,0.00,Wunderground v.1.15,2013-01-14 23:49:00,
2013-01-14 16:54:00,5.0,-1.5,30.57,NNW,334,3.0,3.0,74,0.00,,,0.00,Wunderground v.1.15,2013-01-14 23:54:00,
2013-01-14 16:59:00,4.9,-1.9,30.58,NNW,334,4.0,5.0,73,0.00,,,0.00,Wunderground v.1.15,2013-01-14 23:59:00,
2013-01-14 17:04:00,4.3,-2.4,30.59,NNW,334,3.0,5.0,73,0.00,,,0.00,Wunderground v.1.15,2013-01-15 00:04:00,
2013-01-14 17:09:00,3.7,-3.0,30.58,NNW,334,3.0,4.0,73,0.00,,,0.00,Wunderground v.1.15,2013-01-15 00:09:00,
2013-01-14 17:14:00,3.2,-3.5,30.58,NNW,334,0.0,4.0,73,0.00,,,0.00,Wunderground v.1.15,2013-01-15 00:14:00,
2013-01-14 17:19:00,2.8,-3.9,30.58,NNW,334,0.0,1.0,73,0.00,,,0.00,Wunderground v.1.15,2013-01-15 00:19:00,
2013-01-14 17:24:00,2.2,-4.8,30.59,NNW,334,1.0,2.0,72,0.00,,,0.00,Wunderground v.1.15,2013-01-15 00:24:00,
2013-01-14 17:29:00,0.9,-6.6,30.59,NNW,334,0.0,1.0,70,0.00,,,0.00,Wunderground v.1.15,2013-01-15 00:29:00,
2013-01-14 17:34:00,0.1,-6.8,30.59,NNW,334,3.0,4.0,72,0.00,,,0.00,Wunderground v.1.15,2013-01-15 00:34:00,
2013-01-14 17:39:00,0.5,-5.6,30.59,NNW,334,4.0,4.0,75,0.00,,,0.00,Wunderground v.1.15,2013-01-15 00:39:00,
2013-01-14 17:44:00,1.5,-4.0,30.60,NNW,328,5.0,5.0,77,0.00,,,0.00,Wunderground v.1.15,2013-01-15 00:44:00,
2013-01-14 17:50:00,1.1,-4.7,30.60,NW,321,5.0,5.0,76,0.00,,,0.00,Wunderground v.1.15,2013-01-15 00:50:00,
2013-01-14 17:55:00,1.3,-4.2,30.60,NW,321,1.0,5.0,77,0.00,,,0.00,Wunderground v.1.15,2013-01-15 00:55:00,
2013-01-14 18:00:00,1.2,-4.3,30.60,NW,321,3.0,3.0,77,0.00,,,0.00,Wunderground v.1.15,2013-01-15 01:00:00,
2013-01-14 18:04:00,1.4,-3.9,30.61,NW,321,4.0,5.0,78,0.00,,,0.00,Wunderground v.1.15,2013-01-15 01:04:00,
2013-01-14 18:10:00,0.9,-4.6,30.61,NW,321,2.0,4.0,77,0.00,,,0.00,Wunderground v.1.15,2013-01-15 01:10:00,
2013-01-14 18:15:00,-0.4,-6.4,30.61,NW,320,5.0,6.0,75,0.00,,,0.00,Wunderground v.1.15,2013-01-15 01:15:00,
2013-01-14 18:20:00,-1.8,-8.1,30.61,WNW,293,4.0,5.0,74,0.00,,,0.00,Wunderground v.1.15,2013-01-15 01:20:00,
2013-01-14 18:25:00,-2.6,-8.8,30.61,WNW,285,4.0,6.0,74,0.00,,,0.00,Wunderground v.1.15,2013-01-15 01:25:00,
2013-01-14 18:30:00,-3.6,-9.5,30.61,WNW,288,6.0,6.0,75,0.00,,,0.00,Wunderground v.1.15,2013-01-15 01:30:00,
2013-01-14 18:35:00,-3.6,-9.3,30.61,WNW,293,5.0,8.0,76,0.00,,,0.00,Wunderground v.1.15,2013-01-15 01:35:00,
2013-01-14 18:40:00,-4.1,-9.8,30.61,WNW,302,5.0,5.0,76,0.00,,,0.00,Wunderground v.1.15,2013-01-15 01:40:00,
2013-01-14 18:45:00,-4.4,-10.0,30.62,WNW,294,3.0,6.0,76,0.00,,,0.00,Wunderground v.1.15,2013-01-15 01:45:00,
2013-01-14 18:50:00,-4.4,-9.8,30.62,West,276,2.0,4.0,77,0.00,,,0.00,Wunderground v.1.15,2013-01-15 01:50:00,
2013-01-14 18:55:00,-5.2,-10.8,30.62,West,272,4.0,5.0,76,0.00,,,0.00,Wunderground v.1.15,2013-01-15 01:55:00,
2013-01-14 19:00:00,-7.7,-13.8,30.63,West,261,4.0,5.0,74,0.00,,,0.00,Wunderground v.1.15,2013-01-15 02:00:00,
2013-01-14 19:05:00,-7.9,-13.7,30.63,West,261,4.0,5.0,75,0.00,,,0.00,Wunderground v.1.15,2013-01-15 02:05:00,
2013-01-14 19:10:00,-5.4,-10.5,30.63,West,261,4.0,4.0,78,0.00,,,0.00,Wunderground v.1.15,2013-01-15 02:10:00,
2013-01-14 19:15:00,-4.8,-9.9,30.63,West,261,2.0,5.0,78,0.00,,,0.00,Wunderground v.1.15,2013-01-15 02:15:00,
2013-01-14 19:20:00,-7.0,-12.6,30.62,West,261,5.0,5.0,76,0.00,,,0.00,Wunderground v.1.15,2013-01-15 02:20:00,
2013-01-14 19:25:00,-7.1,-12.4,30.62,West,261,5.0,6.0,77,0.00,,,0.00,Wunderground v.1.15,2013-01-15 02:25:00,
2013-01-14 19:30:00,-7.3,-12.3,30.62,West,261,2.0,5.0,78,0.00,,,0.00,Wunderground v.1.15,2013-01-15 02:30:00,
2013-01-14 19:35:00,-7.6,-12.6,30.63,West,261,4.0,5.0,78,0.00,,,0.00,Wunderground v.1.15,2013-01-15 02:35:00,
2013-01-14 19:40:00,-7.9,-12.9,30.63,West,261,3.0,4.0,78,0.00,,,0.00,Wunderground v.1.15,2013-01-15 02:40:00,
2013-01-14 19:45:00,-8.6,-13.6,30.63,West,261,5.0,5.0,78,0.00,,,0.00,Wunderground v.1.15,2013-01-15 02:45:00,
2013-01-14 19:50:00,-8.3,-13.3,30.62,West,263,4.0,5.0,78,0.00,,,0.00,Wunderground v.1.15,2013-01-15 02:50:00,
2013-01-14 19:55:00,-8.9,-13.9,30.62,West,263,5.0,6.0,78,0.00,,,0.00,Wunderground v.1.15,2013-01-15 02:55:00,
2013-01-14 20:00:00,-9.2,-14.2,30.62,West,275,3.0,5.0,78,0.00,,,0.00,Wunderground v.1.15,2013-01-15 03:00:00,
2013-01-14 20:05:00,-8.9,-13.9,30.62,West,265,4.0,5.0,78,0.00,,,0.00,Wunderground v.1.15,2013-01-15 03:05:00,
2013-01-14 20:10:00,-7.5,-12.3,30.62,West,271,4.0,4.0,79,0.00,,,0.00,Wunderground v.1.15,2013-01-15 03:10:00,
2013-01-14 20:15:00,-6.4,-11.2,30.62,WNW,282,3.0,4.0,79,0.00,,,0.00,Wunderground v.1.15,2013-01-15 03:15:00,
2013-01-14 20:20:00,-6.5,-11.3,30.63,WNW,299,3.0,4.0,79,0.00,,,0.00,Wunderground v.1.15,2013-01-15 03:20:00,
2013-01-14 20:25:00,-7.8,-12.8,30.63,WNW,296,3.0,4.0,78,0.00,,,0.00,Wunderground v.1.15,2013-01-15 03:25:00,
2013-01-14 20:30:00,-8.9,-14.2,30.62,WNW,296,3.0,4.0,77,0.00,,,0.00,Wunderground v.1.15,2013-01-15 03:30:00,
2013-01-14 20:35:00,-9.6,-14.8,30.63,WNW,286,3.0,5.0,77,0.00,,,0.00,Wunderground v.1.15,2013-01-15 03:35:00,
2013-01-14 20:40:00,-10.2,-15.4,30.63,WNW,284,3.0,3.0,77,0.00,,,0.00,Wunderground v.1.15,2013-01-15 03:40:00,
2013-01-14 20:45:00,-10.6,-15.8,30.63,WNW,284,3.0,4.0,77,0.00,,,0.00,Wunderground v.1.15,2013-01-15 03:45:00,
2013-01-14 20:50:00,-10.8,-16.0,30.63,West,276,3.0,4.0,77,0.00,,,0.00,Wunderground v.1.15,2013-01-15 03:50:00,
2013-01-14 20:55:00,-10.9,-16.1,30.62,West,279,4.0,4.0,77,0.00,,,0.00,Wunderground v.1.15,2013-01-15 03:55:00,
2013-01-14 21:00:00,-10.9,-16.1,30.62,West,277,3.0,4.0,77,0.00,,,0.00,Wunderground v.1.15,2013-01-15 04:00:00,
2013-01-14 21:05:00,-10.9,-16.1,30.62,West,277,3.0,4.0,77,0.00,,,0.00,Wunderground v.1.15,2013-01-15 04:05:00,
2013-01-14 21:10:00,-11.1,-16.3,30.63,WNW,285,3.0,3.0,77,0.00,,,0.00,Wunderground v.1.15,2013-01-15 04:10:00,
2013-01-14 21:15:00,-11.3,-16.5,30.63,WNW,283,3.0,3.0,77,0.00,,,0.00,Wunderground v.1.15,2013-01-15 04:15:00,
2013-01-14 21:20:00,-11.3,-16.5,30.63,West,281,2.0,3.0,77,0.00,,,0.00,Wunderground v.1.15,2013-01-15 04:20:00,
2013-01-14 21:25:00,-11.2,-16.4,30.62,West,276,3.0,4.0,77,0.00,,,0.00,Wunderground v.1.15,2013-01-15 04:25:00,
2013-01-14 21:30:00,-10.9,-16.1,30.63,WNW,291,4.0,4.0,77,0.00,,,0.00,Wunderground v.1.15,2013-01-15 04:30:00,
2013-01-14 21:35:00,-10.9,-16.1,30.63,WNW,295,3.0,4.0,77,0.00,,,0.00,Wunderground v.1.15,2013-01-15 04:35:00,
2013-01-14 21:40:00,-11.2,-16.4,30.63,WNW,296,3.0,4.0,77,0.00,,,0.00,Wunderground v.1.15,2013-01-15 04:40:00,
2013-01-14 21:45:00,-11.1,-16.3,30.62,WNW,294,3.0,4.0,77,0.00,,,0.00,Wunderground v.1.15,2013-01-15 04:45:00,
2013-01-14 21:51:00,-11.2,-16.4,30.62,WNW,287,4.0,4.0,77,0.00,,,0.00,Wunderground v.1.15,2013-01-15 04:51:00,
2013-01-14 21:56:00,-11.3,-16.5,30.62,WNW,287,4.0,4.0,77,0.00,,,0.00,Wunderground v.1.15,2013-01-15 04:56:00,
2013-01-14 22:00:00,-11.5,-16.7,30.63,WNW,300,3.0,4.0,77,0.00,,,0.00,Wunderground v.1.15,2013-01-15 05:00:00,
2013-01-14 22:02:00,-11.8,-17.0,30.63,WNW,299,4.0,4.0,77,0.00,,,0.00,Wunderground v.1.15,2013-01-15 05:02:00,
2013-01-14 22:07:00,-12.4,-17.8,30.63,WNW,298,3.0,5.0,76,0.00,,,0.00,Wunderground v.1.15,2013-01-15 05:07:00,
2013-01-14 22:12:00,-12.2,-17.4,30.63,WNW,294,4.0,5.0,77,0.00,,,0.00,Wunderground v.1.15,2013-01-15 05:12:00,
2013-01-14 22:17:00,-10.9,-15.9,30.63,WNW,292,4.0,6.0,78,0.00,,,0.00,Wunderground v.1.15,2013-01-15 05:17:00,
2013-01-14 22:22:00,-10.4,-15.4,30.63,WNW,292,4.0,5.0,78,0.00,,,0.00,Wunderground v.1.15,2013-01-15 05:22:00,
2013-01-14 22:27:00,-9.9,-14.9,30.63,WNW,286,4.0,5.0,78,0.00,,,0.00,Wunderground v.1.15,2013-01-15 05:27:00,
2013-01-14 22:32:00,-9.8,-15.0,30.63,West,281,3.0,5.0,77,0.00,,,0.00,Wunderground v.1.15,2013-01-15 05:32:00,
2013-01-14 22:37:00,-9.9,-15.1,30.63,WNW,300,5.0,6.0,77,0.00,,,0.00,Wunderground v.1.15,2013-01-15 05:37:00,
2013-01-14 22:42:00,-9.8,-15.0,30.63,WNW,287,4.0,5.0,77,0.00,,,0.00,Wunderground v.1.15,2013-01-15 05:42:00,
2013-01-14 22:47:00,-10.0,-15.2,30.63,WNW,286,4.0,5.0,77,0.00,,,0.00,Wunderground v.1.15,2013-01-15 05:47:00,
2013-01-14 22:53:00,-10.7,-15.9,30.63,WNW,286,4.0,5.0,77,0.00,,,0.00,Wunderground v.1.15,2013-01-15 05:53:00,
2013-01-14 22:58:00,-10.6,-15.8,30.63,WNW,296,4.0,5.0,77,0.00,,,0.00,Wunderground v.1.15,2013-01-15 05:58:00,
2013-01-14 23:03:00,-10.0,-15.2,30.63,West,268,2.0,4.0,77,0.00,,,0.00,Wunderground v.1.15,2013-01-15 06:03:00,
2013-01-14 23:08:00,-10.3,-15.5,30.63,WSW,244,3.0,4.0,77,0.00,,,0.00,Wunderground v.1.15,2013-01-15 06:08:00,
2013-01-14 23:13:00,-11.7,-17.1,30.63,WSW,240,4.0,4.0,76,0.00,,,0.00,Wunderground v.1.15,2013-01-15 06:13:00,
2013-01-14 23:18:00,-12.0,-17.2,30.63,WSW,250,3.0,4.0,77,0.00,,,0.00,Wunderground v.1.15,2013-01-15 06:18:00,
2013-01-14 23:23:00,-12.1,-17.5,30.63,WSW,254,3.0,4.0,76,0.00,,,0.00,Wunderground v.1.15,2013-01-15 06:23:00,
2013-01-14 23:28:00,-12.5,-17.9,30.64,SW,235,3.0,4.0,76,0.00,,,0.00,Wunderground v.1.15,2013-01-15 06:28:00,
2013-01-14 23:33:00,-12.8,-18.0,30.64,West,259,2.0,4.0,77,0.00,,,0.00,Wunderground v.1.15,2013-01-15 06:33:00,
2013-01-14 23:38:00,-11.2,-16.4,30.64,West,260,4.0,4.0,77,0.00,,,0.00,Wunderground v.1.15,2013-01-15 06:38:00,
2013-01-14 23:43:00,-9.9,-14.9,30.64,West,266,3.0,4.0,78,0.00,,,0.00,Wunderground v.1.15,2013-01-15 06:43:00,
2013-01-14 23:48:00,-9.8,-15.0,30.65,West,275,3.0,4.0,77,0.00,,,0.00,Wunderground v.1.15,2013-01-15 06:48:00,
2013-01-14 23:53:00,-9.6,-14.8,30.65,WNW,302,5.0,6.0,77,0.00,,,0.00,Wunderground v.1.15,2013-01-15 06:53:00,
2013-01-14 23:58:00,-9.9,-15.1,30.65,WSW,243,3.0,6.0,77,0.00,,,0.00,Wunderground v.1.15,2013-01-15 06:58:00,